Location: Pasadena, ca
(34.1243°N, 118.1037°W)
Time: 17:50:20
(UTC-08:00)

OTV 5 (USA 277) - Pass Details

Date: 11 November 2017
Orbit: 404 x 417 km, 43.0° (Epoch: 07 September)

Event Time Altitude Azimuth Distance (km) Brightness Sun altitude
Exits shadow 04:39:04 25° 21° (NNE) 845 ? -21.4°
Drops below altitude 10° 04:40:57 10° 47° (NE) 1,455 ? -21.0°
Sets 04:43:10 0° 57° (ENE) 2,316 ? -20.6°
